Back to catalog

FENGYUN 1C DEB

AliveSSO
NORAD 30608·DEBRIS·🇨🇳 China

Launched May 10, 1999 from Taiyuan Satellite Launch Center

Loading…

Next Passes (next 24 hours)

TLE

FreshSource: Space-Track

Epoch: Sep 14, 2026, 10:22 UTC

1 30608U 99025AMP 26257.43238520  .00000772  00000-0  31830-3 0  9995
2 30608  98.6819 324.3715 0014751  89.1030 335.8083 14.29615674 13766

Track FENGYUN 1C DEB in real time with AllMySat

Download on the App Store